This demonstration page uses our WeatherBlox Daily Observations layout. Learn more.

Left ArrowRight Arrow

41.55636, -103.73856

Hourly Observations for April 17, 2016

Temp ( °F °C ) Dew Point ( °F °C ) Humidity (%) Winds ( mph kmh ) Pressure ( in mb ) Visibility ( mi km ) Precip ( " mm )
12:06 am 00:06 Cloudy with Light Rain 35 1.7 33 0.6 93 93 NNW 10 17 30.24 1024 9 14 0.00 0.03
12:50 am 00:50 Cloudy 36 2 34 1 93 93 N 15 24 30.27 1025 10 16 0.00 0.00
12:53 am 00:53 Cloudy 36 2.2 33 0.6 89 89 N 16 26 30.22 1024 10 16 0.00 0.03
1:39 am 01:39 Cloudy with Light Snow 36 2.2 33 0.6 89 89 N 10 17 30.27 1025 5 8 0.01 0.25
1:53 am 01:53 Cloudy with Light Snow 34 1.1 32 0 92 92 N 17 28 30.20 1023 2 3 0.02 0.51
2:00 am 02:00 Windy with Snow Likely 34 1 32 0 93 93 N 22 35 30.24 1024 2 2 0.00 0.00
2:21 am 02:21 Windy with Snow Likely 34 1.1 32 0 92 92 N 31 50 30.18 1022 3 4 0.03 0.76
2:34 am 02:34 Cloudy with Light Snow 36 2 32 0 87 87 N 14 22 30.21 1023 3 5 0.00 0.00
2:50 am 02:50 Cloudy with Light Rain 36 2 32 0 87 87 N 16 26 30.21 1023 9 14 0.00 0.00
2:53 am 02:53 Cloudy with Light Rain 35 1.7 32 0 89 89 N 17 28 30.17 1022 10 16 0.04 1.02
3:53 am 03:53 Cloudy with Light Snow 35 1.7 31 -0.6 85 85 N 7 11 30.22 1024 7 11 0.00 0.03
4:34 am 04:34 Cloudy with Heavy Rain 34 1 30 -1 87 87 N 5 7 30.30 1026 3 4 0.00 0.00
4:53 am 04:53 Cloudy with Light Snow 34 1.1 32 0 92 92 NNW 3 6 30.27 1025 1 2 0.09 2.29
5:15 am 05:15 Cloudy with Light Snow 33 0.6 32 0 96 96 N 7 11 30.33 1027 1 2 0.04 1.02
5:50 am 05:50 Cloudy with Light Snow 34 1 32 0 93 93 NNW 7 11 30.33 1027 1 2 0.00 0.00
5:53 am 05:53 Cloudy with Light Snow 33 0.6 32 0 96 96 NNW 7 11 30.30 1026 2 2 0.11 2.79
6:36 am 06:36 Mostly Cloudy with Light Snow 33 0.6 32 0 96 96 NNW 7 11 30.39 1029 1 1 0.04 1.02
6:53 am 06:53 Mostly Cloudy with Snow 33 0.6 32 0 96 96 N 5 7 30.34 1028 1 1 0.07 1.78
7:07 am 07:07 Cloudy with Snow 33 0.6 32 0 96 96 NNW 5 7 30.39 1029 1 1 0.01 0.25
7:50 am 07:50 Mostly Cloudy with Snow 34 1 32 0 93 93 NNW 3 6 30.39 1029 1 1 0.00 0.00
7:53 am 07:53 Cloudy with Snow 33 0.6 32 0 96 96 VRB 3 6 30.36 1028 1 1 0.06 1.52
8:06 am 08:06 Cloudy with Light Snow 34 1 32 0 93 93 NW 5 7 30.39 1029 1 2 0.00 0.00
8:25 am 08:25 Cloudy with Light Snow 33 0.6 31 -0.6 92 92 N 9 15 30.42 1030 2 2 0.01 0.25
8:53 am 08:53 Cloudy with Light Snow 34 1.1 32 0 92 92 NW 3 6 30.36 1028 1 2 0.01 0.25
9:21 am 09:21 Cloudy with Light Snow 34 1.1 31 -0.6 89 89 N 7 11 30.39 1029 2 3 0.01 0.25
9:30 am 09:30 Cloudy with Light Snow 34 1 30 -1 87 87 N 7 11 30.39 1029 3 4 0.00 0.00
9:48 am 09:48 Cloudy with Light Snow 34 1 30 -1 87 87 N 9 15 30.39 1029 3 5 0.00 0.00
9:53 am 09:53 Cloudy with Light Snow 34 1.1 30 -1.1 85 85 N 10 17 30.36 1028 4 6 0.01 0.25
10:09 am 10:09 Cloudy with Light Snow 35 1.7 30 -1.1 82 82 N 14 22 30.39 1029 6 10 0.00 0.03
10:53 am 10:53 Cloudy 35 1.7 29 -1.7 78 78 N 17 28 30.36 1028 10 16 0.00 0.03
11:53 am 11:53 Cloudy 36 2.2 30 -1.1 79 79 N 21 33 30.35 1028 10 16 0.00 0.00
12:53 pm 12:53 Cloudy 38 3.3 31 -0.6 76 76 NNE 23 37 30.34 1028 10 16 0.00 0.00
1:03 pm 13:03 Cloudy 37 3 30 -1 75 75 NNE 21 33 30.36 1028 10 16 0.00 0.00
1:53 pm 13:53 Cloudy 40 4.4 32 0 73 73 N 17 28 30.33 1027 10 16 0.00 0.00
2:53 pm 14:53 Cloudy 43 6.1 33 0.6 68 68 N 14 22 30.31 1026 10 16 0.00 0.00
3:53 pm 15:53 Cloudy 43 6.1 32 0 65 65 N 15 24 30.29 1026 10 16 0.00 0.00
4:53 pm 16:53 Cloudy 44 6.7 32 0 63 63 N 15 24 30.30 1026 10 16 0.00 0.00
5:13 pm 17:13 Cloudy 43 6.1 33 0.6 68 68 NNE 18 30 30.30 1026 10 16 0.00 0.00
5:53 pm 17:53 Cloudy 42 5.6 32 0 68 68 NE 12 19 30.33 1027 10 16 0.00 0.00
6:53 pm 18:53 Cloudy 40 4.4 32 0 73 73 NNE 12 19 30.35 1028 10 16 0.00 0.00
7:53 pm 19:53 Cloudy 39 3.9 31 -0.6 73 73 N 7 11 30.37 1028 10 16 0.00 0.00
8:29 pm 20:29 Cloudy 39 3.9 32 0 76 76 NW 5 7 30.39 1029 10 16 0.00 0.00
8:53 pm 20:53 Cloudy 39 3.9 32 0 76 76 N 6 9 30.39 1029 10 16 0.00 0.00
9:53 pm 21:53 Cloudy 38 3.3 33 0.6 83 83 NNW 7 11 30.37 1029 10 16 0.00 0.00
10:53 pm 22:53 Cloudy 38 3.3 33 0.6 83 83 Calm 30.40 1030 10 16 0.00 0.00
11:53 pm 23:53 Cloudy 37 2.8 33 0.6 86 86 NW 7 11 30.38 1029 10 16 0.00 0.00

Powered by AerisWeather